Phnom Penh, Cambodia

7:53 AM ICT on February 24, 2017 (GMT +0700)
Pochentong International

Weather History for VDPP - October, 2011

Change the Weather History Date:

Thursday, October 6, 2011

  Actual Average Record
Temperature  
Mean Temperature 84 °F -  
Max Temperature 93 °F 84 °F 93 °F (2011)
Min Temperature 74 °F 76 °F 73 °F (2004)
Cooling Degree Days 18    
Growing Degree Days 34 (Base 50)    
Moisture  
Dew Point 73 °F    
Average Humidity 69    
Maximum Humidity 91    
Minimum Humidity 46    
Precipitation  
Precipitation 0.00 in - - ()
Sea Level Pressure  
Sea Level Pressure 29.80 in    
Wind  
Wind Speed 4 mph ()    
Max Wind Speed 15 mph    
Max Gust Speed -    
Visibility 5.8 miles    
Events Rain , Thunderstorm    
Averages and records for this station are not official NWS values.
T = Trace of Precipitation, MM = Missing Value Source: Averaged Metar Reports

Daily Weather History Graph

Daily Weather History Graph

Search for Another Location

Airport or City:

Trip Planner

Search our weather history database for the weather conditions in past years. The results will help you decide how hot, cold, wet, or windy it might be!

Date:

Astronomy

Oct. 06, 2011 Rise Set
Actual Time 5:49 AM ICT 5:48 PM ICT
Civil Twilight 5:28 AM ICT 6:09 PM ICT
Nautical Twilight 5:03 AM ICT 6:33 PM ICT
Astronomical Twilight 4:39 AM ICT 6:58 PM ICT
Moon 1:53 PM ICT (10/6) 1:01 AM ICT (10/6)
Length of Visible Light 12h 40m
Length of Day
11h 58m
Waxing Gibbous, 71% of the Moon is Illuminated
Oct 6
Waxing Gibbous
Oct 12
Full
Oct 20
Last Quarter
Oct 27
New
Nov 2
First Quarter

Hourly Weather History & Observations

Time (ICT) Temp. Heat Index Dew Point Humidity Pressure Visibility Wind Dir Wind Speed Gust Speed Precip Events Conditions
6:00 AM 78.8 °F - 71.6 °F 78% 29.80 in 6.2 mi WSW 3.5 mph - N/A   Mostly Cloudy
6:30 AM 80.6 °F 85.4 °F 73.4 °F 79% 29.80 in 6.2 mi SW 2.3 mph - N/A   Mostly Cloudy
7:00 AM 78 °F - 76 °F 91% 29.83 in 6 mi SW 4.5 mph - -   Partly Cloudy
7:00 AM 80.6 °F 85.4 °F 73.4 °F 79% 29.83 in 6.2 mi West 2.3 mph - N/A   Scattered Clouds
7:30 AM 80.6 °F 85.4 °F 73.4 °F 79% 29.83 in 6.2 mi NNW 2.3 mph - N/A   Scattered Clouds
8:00 AM 82.4 °F 88.2 °F 73.4 °F 74% 29.83 in 6.2 mi WNW 2.3 mph - N/A   Scattered Clouds
8:30 AM 84.2 °F 90.9 °F 73.4 °F 70% 29.83 in 6.2 mi NW 3.5 mph - N/A   Scattered Clouds
9:00 AM 86.0 °F 93.4 °F 73.4 °F 66% 29.83 in 6.2 mi NW 4.6 mph - N/A   Scattered Clouds
9:30 AM 86.0 °F 93.4 °F 73.4 °F 66% 29.86 in 6.2 mi WNW 6.9 mph - N/A   Scattered Clouds
10:00 AM 87.8 °F 93.8 °F 71.6 °F 58% 29.86 in 6.2 mi NNW 6.9 mph - N/A   Scattered Clouds
10:30 AM 89.6 °F 96.2 °F 71.6 °F 55% 29.83 in 6.2 mi NNW 6.9 mph - N/A   Scattered Clouds
11:00 AM 91.4 °F 96.8 °F 69.8 °F 49% 29.83 in 6.2 mi NNW 9.2 mph - N/A   Scattered Clouds
11:30 AM 91.4 °F 96.8 °F 69.8 °F 49% 29.83 in 6.2 mi North 8.1 mph - N/A   Scattered Clouds
12:00 PM 91.4 °F 98.4 °F 71.6 °F 52% 29.80 in 6.2 mi NE 8.1 mph - N/A   Scattered Clouds
12:30 PM 91.4 °F 98.4 °F 71.6 °F 52% 29.80 in 6.2 mi NNW 4.6 mph - N/A   Scattered Clouds
1:00 PM 93.2 °F 98.8 °F 69.8 °F 46% 29.77 in 6.2 mi WNW 3.5 mph - N/A   Scattered Clouds
1:30 PM 91.4 °F 96.8 °F 69.8 °F 49% 29.74 in 6.2 mi NW 4.6 mph - N/A   Partly Cloudy
2:00 PM 89.6 °F 96.2 °F 71.6 °F 55% 29.74 in 6.2 mi SE 5.8 mph - N/A   Partly Cloudy
2:30 PM 87.8 °F 93.8 °F 71.6 °F 58% 29.71 in 6.2 mi East 6.9 mph - N/A   Partly Cloudy
3:00 PM 89.6 °F 98.2 °F 73.4 °F 59% 29.71 in 6.2 mi ENE 3.5 mph - N/A   Partly Cloudy
3:30 PM 87.8 °F 95.6 °F 73.4 °F 62% 29.71 in 6.2 mi ESE 3.5 mph - N/A   Partly Cloudy
4:00 PM 84.2 °F 87.3 °F 68.0 °F 58% 29.74 in 5.6 mi West 15.0 mph - N/A Rain Rain
4:30 PM 82.4 °F 88.2 °F 73.4 °F 74% 29.77 in 3.1 mi West 10.4 mph - N/A Rain , Thunderstorm Thunderstorms and Rain
5:00 PM 80.6 °F 85.4 °F 73.4 °F 79% 29.77 in 4.3 mi Variable 1.2 mph - N/A Rain , Thunderstorm Light Thunderstorms and Rain
5:30 PM 80.6 °F 85.4 °F 73.4 °F 79% 29.77 in 5.6 mi NNW 3.5 mph - N/A Rain Light Rain
6:00 PM 80.6 °F 85.4 °F 73.4 °F 79% 29.80 in 5.6 mi SW 3.5 mph - N/A   Mostly Cloudy
6:30 PM 80.6 °F 85.4 °F 73.4 °F 79% 29.80 in 5.6 mi South 5.8 mph - N/A   Mostly Cloudy
7:00 PM 80.6 °F 85.4 °F 73.4 °F 79% 29.80 in 5.6 mi South 3.5 mph - N/A Rain Light Rain
7:30 PM 80.6 °F 85.4 °F 73.4 °F 79% 29.80 in 5.6 mi West 2.3 mph - N/A Rain Light Rain
8:00 PM 80.6 °F 85.4 °F 73.4 °F 79% 29.83 in 5.6 mi WSW 3.5 mph - N/A   Mostly Cloudy
8:30 PM 80.6 °F 85.4 °F 73.4 °F 79% 29.83 in 5.6 mi Calm Calm - N/A   Mostly Cloudy
9:00 PM 80.6 °F 85.4 °F 73.4 °F 79% 29.83 in 5.6 mi WNW 3.5 mph - N/A   Mostly Cloudy
9:30 PM 80.6 °F 85.4 °F 73.4 °F 79% 29.83 in 5.6 mi WNW 2.3 mph - N/A   Mostly Cloudy
10:00 PM 80.6 °F 85.4 °F 73.4 °F 79% 29.83 in 5.6 mi Calm Calm - N/A   Mostly Cloudy
10:30 PM 80.6 °F 85.4 °F 73.4 °F 79% 29.83 in 5.6 mi West 2.3 mph - N/A   Mostly Cloudy
11:00 PM 80.6 °F 85.4 °F 73.4 °F 79% 29.83 in 5.6 mi West 3.5 mph - N/A   Mostly Cloudy